www.pogodaiklimat.ru
ПОГОДА в Трут-ор-Консекуэнсесе
Время
и дата
01:53 21.06
02:53 21.06
03:53 21.06
04:53 21.06
05:53 21.06
06:53 21.06
07:53 21.06
08:53 21.06
09:53 21.06
10:53 21.06
11:53 21.06
12:53 21.06
13:53 21.06
14:53 21.06
15:53 21.06
16:53 21.06
17:53 21.06
18:53 21.06
19:53 21.06
20:53 21.06
21:53 21.06
22:53 21.06
23:53 21.06
00:53 22.06
01:53 22.06
02:53 22.06
03:53 22.06
04:53 22.06
05:53 22.06
06:53 22.06
07:53 22.06
08:53 22.06
09:53 22.06
10:53 22.06
11:53 22.06
12:53 22.06
13:53 22.06
14:53 22.06
15:53 22.06
16:53 22.06
17:53 22.06
18:53 22.06
19:53 22.06
20:53 22.06
21:53 22.06
22:53 22.06
23:53 22.06
00:53 23.06
Ветер
(напр.,м/с)
Видим. Явления Облачность Т
(С)
Тd
(С)
f
(%)
Тe
(С)
Тes
(С)
Комфортность P
(гПа)
Po
(гПа)
Тmin
(С)
Tmax
(С)
R
(мм)
R24
(мм)
S
(см)
Ю 5 16 км 5/5 1170 м +22.8 +15.0 61 +27 +27 душно 1012.3 854.7
ЮВ 5 16 км 5/5 1050 м +22.2 +15.0 64 +26 +26 душно 1012.4 854.7
штиль 0 16 км 8/8 1410 м +22.2 +15.0 64 +26 +26 душно 1011.8 854.4
ЮВ 2 16 км 10/10 1080 м +22.2 +15.0 64 +26 +26 душно 1012.4 854.7 +21.1 +23.9
ЮВ 6 16 км 10/10 1170 м +22.2 +15.6 66 +26 +26 душно 1013.1 855.0
ЮВ 5 16 км 10/10 1200 м +22.2 +16.1 68 +26 +26 душно 1014.2 855.8
ЮВ 4 16 км 10/10 870 м +23.9 +16.1 62 +27 +27 жарко 1014.5 856.1
ЮЗ 4 16 км 10/10 1050 м +24.4 +16.1 60 +28 +28 душно 1014.4 855.8
ЮЗ 3 16 км 10/10 1050 м +23.9 +18.3 71 +28 +28 душно 1014.5 855.8
Ю 6
{9}
16 км слабый дождь 10/10 1050 m
[Ns]
+23.9 +18.3 71 +28 +28 душно 1014.8 855.8 +22.2 +25.0 2.5
Ю 7
{12}
16 км 10/10 1020 м +23.9 +17.2 66 +28 +28 душно 1014.7 855.8
Ю 6 16 км слабый дождь 10/10 990 m
[Ns]
+23.9 +17.8 69 +28 +28 душно 1014.7 855.8
Ю 7 16 км 10/10 1110 м +23.9 +17.2 66 +28 +28 душно 1014.6 855.6
Ю 5 16 км 2/2 1080 м +22.8 +18.3 76 +28 +36 душно 1014.2 855.0
Ю 3 16 км 2/2 600 м +22.8 +18.3 76 +28 +38 душно 1013.1 854.1
Ю 3 16 км 2/2 600 м +24.4 +18.9 71 +29 +35 душно 1012.6 853.9 +22.8 +24.4
Ю 2 16 км ясно +24.4 +17.8 67 +29 +33 душно 1012.1 853.6
ЮЗ 2 16 км ясно +24.4 +17.8 67 +29 +30 душно 1012.2 853.6
З 2 16 км 2/0 3600 m
[Ac]
+24.4 +17.2 64 +28 +28 душно 1012.0 853.9
штиль 0 16 км ясно +23.9 +17.8 69 +28 +28 душно 1012.7 854.4
С 2 16 км 8/0 2400 m
[Ac]
+23.3 +18.3 73 +29 +29 душно 1013.6 855.0
штиль 0 16 км 10/0 2100 m
[Ac]
+23.3 +17.8 71 +29 +29 душно 1014.1 855.3 +22.8 +25.0
штиль 0 16 км 8/2 1950 m
[Ac]
+22.8 +18.3 76 +28 +28 душно 1014.2 855.3
штиль 0 16 км ясно +22.8 +18.3 76 +28 +28 душно 1013.8 855.0
штиль 0 16 км 10/0 3600 m
[Ac]
+22.2 +18.9 82 +28 +28 душно 1013.6 854.7
С 2 16 км 10/0 2400 m
[Ac]
+22.2 +18.3 79 +27 +27 душно 1013.8 854.7
штиль 0 16 км 5/0 3600 m
[Ac]
+22.2 +17.8 76 +27 +27 душно 1014.0 855.0
штиль 0 16 км ясно +22.2 +17.8 76 +27 +27 душно 1014.0 855.0 +21.7 +23.3 2.5
штиль 0 16 км ясно +22.2 +18.3 79 +27 +27 душно 1014.4 855.6
СВ 3 16 км ясно +23.9 +17.2 66 +28 +28 душно 1014.5 855.8
СВ 3 16 км ясно +25.0 +16.1 58 +28 +31 жарко 1014.6 856.1
СВ 5 16 км 2/2 1290 м +27.2 +15.6 49 +30 +33 душно 1014.2 855.8
В 6
{8}
16 км 5/5 1410 м +28.9 +15.6 44 +32 +34 душно 1013.7 855.6
нст 2 16 км 8/8 1500 м +29.4 +15.0 42 +32 +35 душно 1013.1 855.3 +21.7 +30.0
СЗ 2 16 км 2/2 1800 м +30.6 +13.9 36 +32 +48 жарко 1012.5 855.0
нст 2 16 км 5/5 1950 м +31.7 +13.3 33 +33 +44 жарко 1011.6 854.1
СЗ 9
{14}
16 км 8/0 2100 m
[Ac]
+28.3 +15.6 46 +31 +32 душно 1011.9 854.1
СЗ 8
{14}
16 км ясно +27.2 +16.1 51 +31 +34 душно 1011.5 853.6
С 5
{10}
16 км 10/0 3000 m
[Ac]
+28.3 +15.0 44 +31 +33 душно 1011.2 853.3
СЗ 6 16 км 10/0 2850 m
[Ac]
+28.3 +15.0 44 +31 +32 душно 1010.8 853.0 +27.2 +33.3
СЗ 9
{14}
16 км 10/0 3300 m
[Ac]
+27.2 +13.9 44 +29 +29 жарко 1010.8 853.0
СЗ 6
{12}
16 км 10/0 3000 m
[Ac]
+26.1 +13.9 47 +28 +29 жарко 1011.2 853.3
СЗ 4 16 км 10/0 3000 m
[Ac]
+26.1 +14.4 48 +28 +28 жарко 1011.8 853.9
СЗ 5 16 км 5/0 3600 m
[Ac]
+25.6 +14.4 50 +28 +28 жарко 1012.3 854.7
С 3 16 км ясно +24.4 +14.4 54 +27 +27 жарко 1012.5 855.0
С 3 16 км ясно +24.4 +14.4 54 +27 +27 жарко 1012.6 855.0 +23.9 +28.9
СЗ 2 16 км ясно +23.9 +13.9 54 +26 +26 жарко 1012.3 854.7
СЗ 3 16 км ясно +23.9 +13.9 54 +26 +26 жарко 1011.5 854.1
Местоположение метеостанции Truth Or Consequences Municipal Airport: широта 33.2367 долгота -107.2681 высота над уровнем моря 1478 м.
В архиве по умолчанию представлена погода в Трут-ор-Консекуэнсесе за последние 1-2 суток. Обновление информации о фактической погоде в базе происходит ежечасно! Архивные данные за месяц целиком и за предыдущие месяцы Вы можете получить, выбрав интересующий диапазон дат из раскрывающегося списка и нажав кнопку "Ввод!".
Внимание! Архив погоды МЕТАР в базе сайта по станциям, не включенным в климатический монитор, хранится не более 60 дней. Нет смысла пытаться выбрать более раннюю дату.
*Определитесь, кто Вы:
Внимание! Время в таблицах - местное (без учета летнего времени). Для получения всемирного времени необходимо вычесть поправку, которая равна -7 ч.
Смотрите также архив погоды в соседних городах и на ближайших метеорологических станциях:
Партнеры нашего сайта:      
Пояснения к столбцам:
  • Ветер - указаны скорость ветра в м/с - средняя за 10 мин, порывы в срок и между сроками (в фигурных скобках) и направление, откуда дует ветер: С - северный,
  • СВ - северо-восточный, В - восточный, ЮВ - юго-восточный, Ю - южный, ЮЗ - юго-западный, З - западный, СЗ - северо-западный.
  • Видимость - горизонтальная дальность видимости в метрах или километрах. При видимости от 1 до 10 км при отсутствии осадков обычно наблюдается дымка, при ухудшении видимости до 1 км и менее - туман. В сухую погоду видимость может ухудшаться дымом, пылью или мглою.
  • Явления - указаны атмосферные явления, наблюдавшиеся в срок или в последний час перед сроком; фигурными скобками обозначены явления, наблюдавшиеся между сроками (за 1-3 часа до срока); квадратными скобками обозначены град или гололедные отложения с указанием их диаметра в мм.
  • Облачность - указаны через наклонную черту общая и нижняя облачность в баллах и высота нижней границы облаков в метрах; квадратными скобками обозначены формы облаков: Ci - перистые, Cs - перисто-слоистые, Cc - перисто-кучевые, Ac - высококучевые, As - высокослоистые, Sc - слоисто-кучевые, Ns - слоисто-дождевые, Cu - кучевые, Cb - кучево-дождевые. Подробнее классификацию облаков см. в Атласе облаков (PDF).
  • T - Температура воздуха - температура, измеренная на высоте 2 м над землей.
  • Td - Температура точки росы - температура, при понижении до которой содержащийся в воздухе водяной пар достигнет насыщения.
  • f - Относительная влажность воздуха - влажноcть воздуха, измеренная на высоте 2 м над землей.
  • Te - Эффективная температура - температура, которую ощущает одетый по сезону человек в тени. Характеристика душности погоды. При расчете учитывается влияние влажности воздуха и скорости ветра на теплоощущения человека.
  • Tes - Эффективная температура на солнце - температура, которую ощущает человек, с поправкой на солнечный нагрев. Характеристика знойности погоды. Зависит от высоты солнца над горизонтом, облачности и скорости ветра. Ночью, в пасмурную погоду, а также при ветре 12 м/с и более поправка равна нулю.
  • P - Атмосферное давление - приведенное к уровню моря атмосферное давление.
  • Po - Атмосферное давление - измеренное на уровне метеостанции атмосферное давление.
  • Tmin - Минимальная температура - минимум температуры воздуха на высоте 2 м над землей.
  • Tmax - Максимальная температура - максимум температуры воздуха на высоте 2 м над землей.
  • R - Количество осадков - Количество выпавших осадков за период времени, мм. При наведении курсора мыши на число - период времени, за который выпало указанное количество осадков.
  • R24 - Количество осадков - Количество выпавших осадков за 24 часа, мм.
  • S - Снежный покров - Высота снежного покрова, см. При наведении курсора мыши на число - состояние снежного покрова и степень покрытия местности в баллах.